www.pogodaiklimat.ru

Погода и климат >> Архив погоды >> Россия >> Ненецкий АО >> Несь


ПОГОДА в Неси

  • Прогноз погоды в Неси
  • Монитор погоды в Неси
  • Климат города

АРХИВ ПОГОДЫ в Неси

Время (UTC), дата Ветер
(напр.,м/с)
 
Видим.   Явления Облачность Т
(С)
Тd
(С)
f
(%)
Тe
(С)
Тes
(С)
Комфортность P
(гПа)
Po
(гПа)
Тmin
(С)
Tmax
(С)
R
(мм)
R24
(мм)
S
(см)
21 14.11 С 2 н/о н/о -1.9 -38.9 4 -4 -4 1023.4 1021.8
00 15.11 ЮВ 2 н/о н/о -1.9 -38.9 4 -4 -4 1025.0 1023.4
03 15.11 Ю 2 н/о н/о -5.4 -41.4 4 -8 -8 1026.5 1025.0 -5.6
06 15.11 ЮВ 2 н/о н/о -6.9 -42.5 4 -10 -10 1026.8 1025.3 -7.9
09 15.11 Ю 3 н/о н/о -4.6 -40.9 4 -9 -9 1026.7 1025.1
12 15.11 Ю 5 н/о н/о -5.3 -41.4 4 -11 -11 1025.7 1024.1
15 15.11 Ю 5 н/о н/о -2.2 -39.2 4 -7 -7 1023.5 1022.0
18 15.11 ЮЗ 6 н/о н/о +0.7 -37.1 4 -4 -4 1021.5 1019.9 +0.6
21 15.11 ЮЗ 7-11
{12}
н/о н/о +0.5 -37.2 4 -5 -5 1019.0 1017.4
00 16.11 ЮЗ 6
{13}
н/о н/о +1.1 -36.8 4 -4 -4 1017.9 1016.4
03 16.11 ЮЗ 6
{12}
н/о н/о +1.7 -36.3 4 -3 -3 1015.9 1014.4 -2.3
06 16.11 З 4
{11}
н/о н/о +2.6 -35.7 4 -1 -1 1015.6 1014.1 +0.5
09 16.11 З 4 н/о н/о +3.1 -35.3 4 0 0 1017.6 1016.1
12 16.11 З 4 н/о н/о +2.9 -35.5 4 -0 -0 1018.6 1017.1
15 16.11 З 4 н/о н/о +3.0 -35.4 4 -0 -0 1019.6 1018.1
18 16.11 З 4 н/о н/о +2.1 -36.1 4 -1 -1 1019.5 1018.0 +3.2
21 16.11 ЮЗ 4 н/о н/о +2.7 -35.4 4 -1 1017.6 1016.0
00 17.11 Ю 5 н/о н/о +2.9 -35.3 4 -1 1014.9 1013.3
03 17.11 ЮЗ 4 н/о н/о +4.1 -34.7 4 +1 +1 1009.7 1008.3 +2.0
06 17.11 З 4 н/о н/о +3.7 -34.7 4 +1 1008.3 1006.7 +2.0
09 17.11 З 4 н/о н/о +3.7 -34.9 4 +1 +1 1006.6 1005.1
12 17.11 З 5 н/о н/о +3.3 -35.0 4 -0 1006.9 1005.3
15 17.11 З 5 н/о н/о +3.0 -35.4 4 -1 -1 1005.5 1004.0
18 17.11 З 4
{10}
н/о н/о +2.8 -35.5 4 -0 -0 1005.0 1003.5 +4.3
21 17.11 СВ 6 н/о н/о +2.4 -35.8 4 -2 -2 1008.9 1007.4
00 18.11 СВ 12-17
{20}
н/о н/о +0.7 -37.1 4 -6 -6 1016.6 1015.1
03 18.11 СВ 13-19
{21}
н/о н/о 0.0 -37.5 4 -7 -7 1023.7 1022.1 -0.2
06 18.11 СВ 10-16
{19}
н/о н/о -1.0 -38.3 4 -8 -8 1028.9 1027.3 -0.9
09 18.11 СВ 9-12
{17}
н/о н/о -1.1 -38.4 4 -8 -8 1032.1 1030.6
12 18.11 СВ 8-13
{14}
н/о н/о -1.8 -38.8 4 -8 -8 1034.7 1033.1
15 18.11 С 5
{13}
н/о н/о -2.0 -39.0 4 -7 -7 1035.6 1034.0
18 18.11 С 5 н/о н/о -2.4 -39.3 4 -7 -7 1036.1 1034.5 -0.9
21 18.11 штиль 0 н/о н/о -2.9 -39.6 4 -2 -2 1035.5 1033.9
00 19.11 З 2 н/о н/о -2.3 -39.0 4 -5 1035.0 1033.3
03 19.11 З 4 н/о н/о -1.1 -38.3 4 -5 -5 1031.3 1029.7 -2.9
06 19.11 З 4 н/о н/о -0.4 -37.8 4 -4 -4 1028.9 1027.3 -2.9
09 19.11 З 5 н/о н/о +1.1 -36.8 4 -3 -3 1027.6 1026.0
12 19.11 З 4 н/о н/о +0.9 -36.9 4 -3 -3 1024.9 1023.4
15 19.11 З 6 н/о н/о +0.4 -37.3 4 -4 -4 1021.8 1020.3
18 19.11 З 5
{11}
н/о н/о +0.4 -37.2 4 -4 -4 1019.7 1018.2 +1.3
21 19.11 З 4 н/о н/о +0.2 -37.2 4 -4 1017.7 1016.0
00 20.11 ЮЗ 4 н/о н/о -0.7 -38.0 4 -5 -5 1012.6 1011.0
03 20.11 З 7-11
{12}
н/о н/о +0.9 -36.9 4 -4 -4 1007.2 1005.7 -0.8
06 20.11 З 7-12
{14}
н/о н/о +1.0 -36.8 4 -4 -4 1003.4 1001.9 -0.8
09 20.11 СЗ 10-16
{16}
н/о н/о +2.8 -35.6 4 -3 -3 1001.7 1000.2
12 20.11 СЗ 8-13
{16}
н/о н/о +2.8 -35.5 4 -2 -2 1000.7 999.2
15 20.11 СЗ 7-12
{18}
н/о н/о +0.4 -37.3 4 -5 -5 1002.3 1000.8
18 20.11 С 10 н/о н/о -1.0 -38.1 4 -8 1006.9 1005.3 +3.0
21 20.11 С 8-13
{15}
н/о н/о -2.5 -39.3 4 -9 -9 1009.3 1007.8
00 21.11 СЗ 5 н/о н/о -3.4 -39.8 4 -9 1011.0 1009.3
03 21.11 С 7-11
{12}
н/о н/о -3.1 -39.7 4 -9 -9 1009.4 1007.8 -3.8
06 21.11 С 4 н/о н/о -5.9 -41.6 4 -11 1011.0 1009.3 -5.8
09 21.11 СЗ 2 н/о н/о -5.4 -41.4 4 -8 -8 1009.2 1007.7
12 21.11 З 1 н/о н/о -4.0 -40.2 4 -5 1008.4 1006.7
15 21.11 З 2 н/о н/о -4.2 -40.3 4 -7 1004.4 1002.7
18 21.11 З 2 н/о н/о -4.1 -40.3 4 -7 1001.7 1000.0 -3.7

 

Местоположение метеостанции Несь (Ненецкий АО, Россия): широта 66.60 долгота 44.68 высота над уровнем моря 13 м.

В архиве по умолчанию представлена погода в Неси за последнюю неделю. Архивные данные за месяц целиком и за предыдущие месяцы, начиная с января 2011 года, Вы можете получить, выбрав интересующий диапазон дат из раскрывающегося списка и нажав кнопку "Ввод!".


*Определитесь, кто Вы:
робот инопланетянин человек

Внимание! Время в таблицах - всемирное. Для получения местного времени необходимо прибавить поправку, которая в Неси равна 3 ч.

Смотрите также архив погоды в соседних городах и на ближайших метеорологических станциях:

Погода в Абрамовском маяке (Архангельская область, Россия) (68 км)
Погода в Мезене (Архангельская область, Россия) (84 км)
Погода на Моржовец Острове (Архангельская область, Россия) (98 км)
Погода в Мосеево (Архангельская область, Россия) (115 км)
Погода в Нижней Пеше (Ненецкий АО, Россия) (137 км)
Погода в Шойне (Ненецкий АО, Россия) (144 км)
Погода на Мысе Микулкин (Ненецкий АО, Россия) (158 км)
Погода на Сосновец Острове (Мурманская область, Россия) (178 км)
Погода в Кепино (Архангельская область, Россия) (187 км)
Погода в Лешуконском (Архангельская область, Россия) (196 км)

Пояснения к столбцам:

Ветер - указаны скорость ветра в м/с - средняя за 10 мин, порывы в срок и между сроками (в фигурных скобках) и направление, откуда дует ветер: С - северный, СВ - северо-восточный, В - восточный, ЮВ - юго-восточный, Ю - южный, ЮЗ - юго-западный, З - западный, СЗ - северо-западный.
Видимость - горизонтальная дальность видимости в метрах или километрах. При видимости от 1 до 10 км при отсутствии осадков обычно наблюдается дымка, при ухудшении видимости до 1 км и менее - туман. В сухую погоду видимость может ухудшаться дымом, пылью или мглою.
Явления - указаны атмосферные явления, наблюдавшиеся в срок или в последний час перед сроком; фигурными скобками обозначены явления, наблюдавшиеся между сроками (за 1-3 часа до срока); квадратными скобками обозначены град или гололедные отложения с указанием их диаметра в мм.
Облачность - указаны через наклонную черту общая и нижняя облачность в баллах и высота нижней границы облаков в метрах; квадратными скобками обозначены формы облаков: Ci - перистые, Cs - перисто-слоистые, Cc - перисто-кучевые, Ac - высококучевые, As - высокослоистые, Sc - слоисто-кучевые, Ns - слоисто-дождевые, Cu - кучевые, Cb - кучево-дождевые. Подробнее классификацию облаков см. в Атласе облаков (PDF).
T - Температура воздуха - температура, измеренная на высоте 2 м над землей.
Td - Температура точки росы - температура, при понижении до которой содержащийся в воздухе водяной пар достигнет насыщения.
f - Относительная влажность воздуха - влажноcть воздуха, измеренная на высоте 2 м над землей.
Te - Эффективная температура - температура, которую ощущает одетый по сезону человек в тени. Характеристика душности погоды. При расчете учитывается влияние влажности воздуха и скорости ветра на теплоощущения человека.
Tes - Эффективная температура на солнце - температура, которую ощущает человек, с поправкой на солнечный нагрев. Характеристика знойности погоды. Зависит от высоты солнца над горизонтом, облачности и скорости ветра. Ночью, в пасмурную погоду, а также при ветре 12 м/с и более поправка равна нулю.
P - Атмосферное давление - приведенное к уровню моря атмосферное давление.
Po - Атмосферное давление - измеренное на уровне метеостанции атмосферное давление.
Tmin - Минимальная температура - минимум температуры воздуха на высоте 2 м над землей.
Tmax - Максимальная температура - максимум температуры воздуха на высоте 2 м над землей.
R - Количество осадков - Количество выпавших осадков за период времени, мм. При наведении курсора мыши на число - период времени, за который выпало указанное количество осадков.
R24 - Количество осадков - Количество выпавших осадков за 24 часа, мм.
S - Снежный покров - Высота снежного покрова, см. При наведении курсора мыши на число - состояние снежного покрова и степень покрытия местности в баллах.